Regional Weather Roundup
Issued by NWS Jackson, KY

Home | Current Version | Previous Version | Graphics & Text | Print | Product List | Glossary On
Versions: 1 2 3 4 5 6 7 8 9 10 11 12 13 14 15 16 17 18 19 20 21 22 23 24 25 26 27 28 29 30 31 32 33 34 35 36 37 38 39 40 41 42 43 44 45 46 47 48 49 50
000
ASUS43 KJKL 280311
RWRJKL

EAST KENTUCKY HOURLY WEATHER ROUNDUP
NATIONAL WEATHER SERVICE JACKSON KY
1100 PM EDT WED AUG 27 2014

NOTE: "FAIR" INDICATES FEW OR NO CLOUDS BELOW 12,000 FEET WITH
NO SIGNIFICANT WEATHER AND/OR OBSTRUCTIONS TO VISIBILITY.

* THESE REPORTS ARE NOT UNDER NWS QUALITY CONTROL AND MAY NOT
  REPORT WEATHER SUCH AS PRECIPITATION AND FOG.

KYZ079-080-083-085-087-088-110-112-115-119-120-280400
...EASTERN KENTUCKY...

CITY           SKY/WX    TMP DP  RH WIND       PRES   REMARKS
JACKSON        MOCLDY    75  68  78 CALM      30.09R
LONDON         CLEAR     75  69  81 CALM      30.09R
SOMERSET*      CLOUDY    73  72  94 CALM      30.09R
MONTICELLO*    CLEAR     72  71  96 CALM      30.10R FOG
WILLIAMSBURG*    N/A    N/A N/A N/A CALM        N/A
MIDDLESBORO*   CLEAR     69  65  87 CALM      30.10R
HARLAN APT*    CLEAR     68  68 100 MISG      30.12R
HAZARD APT*    CLEAR     72  72 100 CALM      30.09R
BLACK MTN*       N/A     64  61  88 VRB2        N/A
PIKEVILLE APT* CLEAR     73  68  83 CALM      30.09S
BIG SANDY*     PTCLDY    75  70  85 CALM      30.08S
MOREHEAD APT*  CLOUDY    75  70  83 CALM      30.09R
$$

KYZ035-036-041-042-044-050-067-078-099-280400
...CENTRAL KENTUCKY...

CITY           SKY/WX    TMP DP  RH WIND       PRES   REMARKS
MT STERLING*   CLOUDY    72  68  88 W3        30.08S
FLEMING/MASON* MOCLDY    73  70  88 NW6       30.07R
DANVILLE*      MOCLDY    73  70  88 CALM      30.09R
RICHMOND*      MOCLDY    75  66  73 S3        30.07S
LEXINGTON      CLOUDY    72  68  87 CALM      30.08R
FRANKFORT      CLOUDY    71  70  96 N3        30.06R
$$

KYZ091>093-OHZ055-061-077-WVZ005-015-034-035-042-280400
...SOUTHERN OHIO/WEST VIRGINIA...

CITY           SKY/WX    TMP DP  RH WIND       PRES   REMARKS
COVINGTON      PTCLDY    79  71  76 N7        30.06R
COLUMBUS       PTCLDY    74  67  78 NE7       30.06R
DAYTON         CLEAR     73  67  81 N3        30.08S
WILMINGTON     CLEAR     73  68  84 N5        30.07R
HUNTINGTON     CLOUDY    75  71  87 NW9       30.04R THUNDER
CHARLESTON     MOCLDY    76  71  85 NE7       30.05R THUNDER
PINEVILLE*     CLEAR     68  68 100 MISG      30.15S
BECKLEY        CLEAR     69  64  84 CALM      30.14S
BLUEFIELD      CLEAR     69  61  75 W5        30.17R
$$

VAZ002-007-008-TNZ017-027-036-066-071-280400
...SOUTHWEST VIRGINIA/EAST TENNESSEE...

CITY           SKY/WX    TMP DP  RH WIND       PRES   REMARKS
WISE*          CLEAR     70  59  68 CALM      30.17S
JONESVILLE*      N/A     66  64  94 CALM      30.12R
ABINGDON*      CLEAR     68  63  84 CALM      30.13R
BRISTOL        CLEAR     67  59  75 CALM      30.10R
KNOXVILLE      CLEAR     73  64  73 CALM      30.06R
OAK RIDGE      CLEAR     71  66  84 CALM      30.09R
CROSSVILLE     CLEAR     69  65  86 CALM      30.13S
NASHVILLE      PTCLDY    81  71  71 NE3       30.06R
$$

...KEY TO REMARKS...
VSB - VISIBILITY IN MILES
WCI - WIND CHILL INDEX
HX  - HEAT INDEX

$$


USA.gov is the U.S. government's official web portal to all federal, state and local government web resources and services.